This demonstration page uses our WeatherBlox Daily Observations layout. Learn more.

Left ArrowRight Arrow

Hourly Observations for July 13, 2018

Temp ( °F °C ) Dew Point ( °F °C ) Humidity (%) Winds ( mph kmh ) Pressure ( in mb ) Visibility ( mi km ) Precip ( " mm )
12:51 am 00:51 Clear 73 22.8 67 19.4 81 81 ESE 5 7 29.95 1014 10 16.0934 N/A
1:51 am 01:51 Mostly Clear 73 22.8 67 19.4 81 81 E 8 13 29.95 1014 10 16.0934 N/A
2:51 am 02:51 Clear 73 22.8 65 18.3 76 76 E 9 15 29.95 1014 10 16.0934 N/A
3:51 am 03:51 Clear 72 22.2 64 17.8 76 76 ENE 7 11 29.94 1014 10 16.0934 N/A
4:51 am 04:51 Clear 71 21.7 66 18.9 84 84 NNW 5 7 29.95 1014 10 16.0934 N/A
5:51 am 05:51 Sunny 70 21.1 67 19.4 90 90 N 5 7 29.96 1015 10 16.0934 N/A
6:51 am 06:51 Sunny 75 23.9 65 18.3 71 71 N N/A 30 1016 10 16.0934 N/A
7:51 am 07:51 Sunny 76 24.4 66 18.9 72 72 N N/A 30.01 1016 10 16.0934 N/A
8:51 am 08:51 Sunny 77 25 65 18.3 66 66 N N/A 30.01 1016 10 16.0934 N/A
9:51 am 09:51 Sunny 81 27.2 63 17.2 54 54 VRB 3 6 29.99 1016 10 16.0934 N/A
10:51 am 10:51 Sunny 84 28.9 62 16.7 48 48 N N/A 29.98 1015 10 16.0934 N/A
11:51 am 11:51 Sunny 89 31.7 62 16.7 41 41 WNW 8 13 29.93 1014 10 16.0934 N/A
12:51 pm 12:51 Sunny 93 33.9 62 16.7 36 36 W 12 19 29.89 1012 10 16.0934 N/A
1:36 pm 13:36 Sunny with Nearby Thunderstorms 95 35 59 15 30 30 W 16 26 29.74 1007 10 16.0934 N/A
1:51 pm 13:51 Sunny 95 35 58 14.4 29 29 W 15 24 29.84 1011 10 16.0934 N/A
2:25 pm 14:25 Sunny with Nearby Thunderstorms 90 32 57 14 33 33 NE 17 28 29.77 1008 10 16.0934 N/A
2:41 pm 14:41 Partly Cloudy with Nearby Thunderstorms 88 31.1 60 15.6 39 39 NE 18 30 29.77 1008 10 16.0934 N/A
2:51 pm 14:51 Mostly Sunny 87 30.6 60 15.6 40 40 NE 16 26 29.87 1012 10 16.0934 N/A
3:51 pm 15:51 Mostly Sunny 86 30 59 15 40 40 NE 16 26 29.86 1011 10 16.0934 N/A
4:51 pm 16:51 Mostly Sunny 82 27.8 64 17.8 55 55 undefined N/A 29.88 1012 10 16.0934 N/A
5:51 pm 17:51 Sunny 83 28.3 63 17.2 51 51 ENE 9 15 29.89 1012 10 16.0934 N/A
6:51 pm 18:51 Sunny 83 28.3 63 17.2 51 51 ESE 9 15 29.88 1012 10 16.0934 N/A
7:51 pm 19:51 Clear 82 27.8 64 17.8 55 55 ESE 6 9 29.9 1013 10 16.0934 N/A
8:51 pm 20:51 Clear 80 26.7 65 18.3 60 60 SE 6 9 29.92 1013 10 16.0934 N/A
9:51 pm 21:51 Clear 78 25.6 66 18.9 67 67 E 5 7 29.93 1014 10 16.0934 N/A
10:51 pm 22:51 Partly Cloudy 78 25.6 66 18.9 67 67 E 5 7 29.93 1014 10 16.0934 N/A
11:51 pm 23:51 Clear 78 25.6 66 18.9 67 67 SE 3 6 29.92 1013 10 16.0934 N/A

Powered by AerisWeather